Location: Dzierzno
(50.6159°N, 19.2852°E)
Time: 08:02:51
(UTC+00:00)

COSMO-SKYMED 1 - Pass Details

Date: 18 November 2025
Orbit: 579 x 581 km, 97.9° (Epoch: 13 December)

Event Time Altitude Azimuth Distance (km) Brightness Sun altitude
Exits shadow 17:27:05 77° 322° (NW) 602 2.4 -24.1°
Maximum altitude 17:27:15 79° 286° (WNW) 597 2.4 -24.2°
Drops below altitude 10° 17:31:21 10° 200° (SSW) 1,892 5.3 -24.8°
Sets 17:33:29 0° 199° (SSW) 2,786 6.2 -25.2°
